Hourly Weather Snegurovka

Today, 19 June, Saturday

Time Temperature Precipitation Wind Pressure Humidity
00:00 +13°C° 0 mm 1 mps 740 mmHg 96%
01:00 +12°C° 0 mm 1 mps 740 mmHg 96%
02:00 +12°C° 0 mm 1 mps 740 mmHg 96%
03:00 +12°C° 0 mm 1 mps 740 mmHg 96%
04:00 +13°C° 0 mm 1 mps 741 mmHg 95%
05:00 +13°C° 0 mm 1 mps 741 mmHg 94%
06:00 +14°C° 0 mm 1 mps 741 mmHg 94%
07:00 +15°C° 0 mm 1 mps 741 mmHg 88%
08:00 +18°C° 0 mm 1 mps 741 mmHg 83%
09:00 +19°C° 0 mm 1 mps 741 mmHg 78%
10:00 +20°C° 0.3 mm 1 mps 741 mmHg 77%
11:00 +21°C° 0.3 mm 1 mps 740 mmHg 75%
12:00 +22°C° 0.3 mm 1 mps 740 mmHg 73%
13:00 +21°C° 1 mm 2 mps 740 mmHg 74%
14:00 +21°C° 1 mm 2 mps 740 mmHg 75%
15:00 +23°C° 0 mm 2 mps 739 mmHg 74%
16:00 +21°C° 0.5 mm 2 mps 739 mmHg 77%
17:00 +20°C° 0.5 mm 2 mps 739 mmHg 80%
18:00 +20°C° 0.5 mm 3 mps 739 mmHg 83%
19:00 +18°C° 0.1 mm 2 mps 740 mmHg 86%
20:00 +17°C° 0.1 mm 2 mps 740 mmHg 89%
21:00 +15°C° 0 mm 2 mps 741 mmHg 92%
22:00 +15°C° 0 mm 2 mps 741 mmHg 92%
23:00 +15°C° 0 mm 2 mps 741 mmHg 91%

Tomorrow, 20 June, Sunday

Time Temperature Precipitation Wind Pressure Humidity
00:00 +14°C° 0 mm 1 mps 741 mmHg 91%
01:00 +14°C° 0 mm 1 mps 741 mmHg 92%
02:00 +14°C° 0 mm 1 mps 741 mmHg 92%
03:00 +14°C° 0 mm 1 mps 741 mmHg 93%
04:00 +14°C° 0 mm 1 mps 741 mmHg 93%
05:00 +14°C° 0 mm 1 mps 741 mmHg 93%
06:00 +14°C° 0 mm 1 mps 741 mmHg 93%
07:00 +14°C° 0.1 mm 1 mps 741 mmHg 91%
08:00 +15°C° 0.1 mm 1 mps 741 mmHg 90%
09:00 +15°C° 0.1 mm 1 mps 742 mmHg 88%
10:00 +15°C° 0.4 mm 1 mps 742 mmHg 90%
11:00 +14°C° 0.4 mm 1 mps 742 mmHg 91%
12:00 +14°C° 0.4 mm 2 mps 742 mmHg 93%
13:00 +14°C° 0.5 mm 1 mps 742 mmHg 93%
14:00 +14°C° 0.5 mm 1 mps 742 mmHg 94%
15:00 +14°C° 0.5 mm 1 mps 742 mmHg 95%
16:00 +13°C° 0.6 mm 1 mps 742 mmHg 95%
17:00 +12°C° 0.6 mm 0 mps 742 mmHg 96%
18:00 +12°C° 0.6 mm 0 mps 743 mmHg 97%
19:00 +12°C° 0.1 mm 0 mps 743 mmHg 96%
20:00 +12°C° 0.1 mm 0 mps 743 mmHg 96%
21:00 +12°C° 0.1 mm 0 mps 743 mmHg 96%
22:00 +11°C° 0 mm 0 mps 743 mmHg 96%
23:00 +11°C° 0 mm 0 mps 744 mmHg 96%

Day after tomorrow, 21 June, Monday

Time Temperature Precipitation Wind Pressure Humidity
00:00 +11°C° 0 mm 0 mps 744 mmHg 96%
01:00 +11°C° 0 mm 0 mps 744 mmHg 96%
02:00 +11°C° 0 mm 0 mps 744 mmHg 96%
03:00 +11°C° 0 mm 0 mps 744 mmHg 96%
04:00 +11°C° 0 mm 0 mps 744 mmHg 96%
05:00 +11°C° 0 mm 0 mps 744 mmHg 96%
06:00 +11°C° 0 mm 0 mps 744 mmHg 95%
07:00 +13°C° 0 mm 1 mps 745 mmHg 93%
08:00 +13°C° 0 mm 1 mps 745 mmHg 92%
09:00 +13°C° 0 mm 1 mps 745 mmHg 90%
10:00 +15°C° 0 mm 1 mps 745 mmHg 83%
11:00 +16°C° 0 mm 2 mps 745 mmHg 77%
12:00 +17°C° 0 mm 2 mps 745 mmHg 71%
13:00 +17°C° 0.1 mm 2 mps 745 mmHg 73%
14:00 +16°C° 0.1 mm 3 mps 745 mmHg 76%
15:00 +16°C° 0.1 mm 3 mps 745 mmHg 78%
16:00 +15°C° 0 mm 2 mps 745 mmHg 79%
17:00 +15°C° 0 mm 2 mps 745 mmHg 79%
18:00 +14°C° 0 mm 1 mps 746 mmHg 79%
19:00 +14°C° 0 mm 1 mps 746 mmHg 81%
20:00 +13°C° 0 mm 1 mps 746 mmHg 83%
21:00 +13°C° 0 mm 1 mps 746 mmHg 84%
22:00 +12°C° 0 mm 1 mps 747 mmHg 85%
23:00 +12°C° 0 mm 1 mps 747 mmHg 85%

22 June, Tuesday

Time Temperature Precipitation Wind Pressure Humidity
00:00 +12°C° 0 mm 1 mps 747 mmHg 86%
01:00 +11°C° 0 mm 0 mps 747 mmHg 86%
02:00 +11°C° 0 mm 0 mps 747 mmHg 87%
03:00 +11°C° 0 mm 0 mps 747 mmHg 87%
04:00 +11°C° 0 mm 0 mps 747 mmHg 87%
05:00 +11°C° 0 mm 0 mps 748 mmHg 86%
06:00 +12°C° 0 mm 0 mps 748 mmHg 85%
07:00 +13°C° 0 mm 0 mps 748 mmHg 79%
08:00 +15°C° 0 mm 0 mps 748 mmHg 73%
09:00 +19°C° 0 mm 1 mps 748 mmHg 67%
10:00 +20°C° 0 mm 1 mps 748 mmHg 63%
11:00 +22°C° 0 mm 1 mps 748 mmHg 59%
12:00 +23°C° 0 mm 2 mps 748 mmHg 55%
13:00 +23°C° 0 mm 2 mps 747 mmHg 56%
14:00 +23°C° 0 mm 2 mps 747 mmHg 57%
15:00 +24°C° 0 mm 2 mps 747 mmHg 59%
16:00 +23°C° 0 mm 2 mps 747 mmHg 63%
17:00 +23°C° 0 mm 2 mps 747 mmHg 67%
18:00 +23°C° 0 mm 2 mps 747 mmHg 71%
19:00 +21°C° 0 mm 1 mps 747 mmHg 77%
20:00 +19°C° 0 mm 1 mps 748 mmHg 83%
21:00 +15°C° 0 mm 0 mps 748 mmHg 89%
22:00 +15°C° 0 mm 1 mps 748 mmHg 90%
23:00 +15°C° 0 mm 1 mps 748 mmHg 91%

23 June, Wednesday

Time Temperature Precipitation Wind Pressure Humidity
00:00 +14°C° 0 mm 1 mps 748 mmHg 93%
01:00 +14°C° 0 mm 1 mps 748 mmHg 93%
02:00 +13°C° 0 mm 1 mps 748 mmHg 93%
03:00 +13°C° 0 mm 1 mps 748 mmHg 93%
04:00 +14°C° 0 mm 1 mps 748 mmHg 92%
05:00 +14°C° 0 mm 1 mps 748 mmHg 91%
06:00 +14°C° 0 mm 0 mps 749 mmHg 90%
07:00 +18°C° 0 mm 1 mps 749 mmHg 82%
08:00 +20°C° 0 mm 1 mps 749 mmHg 74%
09:00 +22°C° 0 mm 1 mps 749 mmHg 65%
10:00 +24°C° 0 mm 1 mps 748 mmHg 61%
11:00 +25°C° 0 mm 1 mps 748 mmHg 56%
12:00 +27°C° 0 mm 1 mps 748 mmHg 51%
13:00 +27°C° 0 mm 1 mps 747 mmHg 50%
14:00 +27°C° 0 mm 2 mps 747 mmHg 49%
15:00 +28°C° 0 mm 2 mps 747 mmHg 48%
16:00 +27°C° 0 mm 2 mps 747 mmHg 55%
17:00 +27°C° 0 mm 1 mps 746 mmHg 62%
18:00 +26°C° 0 mm 1 mps 746 mmHg 69%
19:00 +24°C° 0.1 mm 1 mps 747 mmHg 75%
20:00 +20°C° 0.1 mm 2 mps 747 mmHg 81%
21:00 +18°C° 0.1 mm 2 mps 747 mmHg 88%
22:00 +17°C° 0 mm 2 mps 747 mmHg 88%
23:00 +16°C° 0 mm 2 mps 748 mmHg 89%

24 June, Thursday

Time Temperature Precipitation Wind Pressure Humidity
00:00 +15°C° 0 mm 1 mps 748 mmHg 89%
01:00 +15°C° 0 mm 1 mps 748 mmHg 89%
02:00 +15°C° 0 mm 1 mps 747 mmHg 88%
03:00 +14°C° 0 mm 1 mps 747 mmHg 87%
04:00 +15°C° 0 mm 1 mps 747 mmHg 86%
05:00 +16°C° 0 mm 1 mps 747 mmHg 85%
06:00 +16°C° 0 mm 1 mps 747 mmHg 84%
07:00 +19°C° 0 mm 1 mps 748 mmHg 76%
08:00 +21°C° 0 mm 1 mps 748 mmHg 69%
09:00 +24°C° 0 mm 1 mps 748 mmHg 61%
10:00 +25°C° 0 mm 1 mps 747 mmHg 58%
11:00 +26°C° 0 mm 1 mps 747 mmHg 55%
12:00 +27°C° 0 mm 1 mps 747 mmHg 53%
13:00 +28°C° 0 mm 1 mps 747 mmHg 50%
14:00 +29°C° 0 mm 1 mps 746 mmHg 48%
15:00 +29°C° 0 mm 1 mps 746 mmHg 46%
16:00 +28°C° 0.1 mm 1 mps 746 mmHg 55%
17:00 +27°C° 0.1 mm 2 mps 746 mmHg 64%
18:00 +26°C° 0.1 mm 3 mps 746 mmHg 73%
19:00 +24°C° 0.1 mm 2 mps 747 mmHg 79%
20:00 +21°C° 0.1 mm 2 mps 747 mmHg 85%
21:00 +19°C° 0.1 mm 2 mps 747 mmHg 91%
22:00 +18°C° 0 mm 2 mps 747 mmHg 90%
23:00 +17°C° 0 mm 2 mps 747 mmHg 89%
Show more